Frankfort, KY

5:09 PM EDT on August 19, 2017 (GMT -0400)
Capital City

Weather History for KFFT - October, 2012

Change the Weather History Date:

Monday, October 8, 2012

  Actual Average Record
Temperature  
Mean Temperature 48 °F 59 °F  
Max Temperature 57 °F 71 °F 95 °F (1939)
Min Temperature 39 °F 47 °F 29 °F (1952)
Degree Days  
Heating Degree Days 17 7  
Month to date heating degree days 62 50  
Since 1 July heating degree days 131 104  
Cooling Degree Days 0 1  
Month to date cooling degree days 0 10  
Year to date cooling degree days 1308 1145  
Moisture  
Dew Point 37 °F    
Average Humidity 70    
Maximum Humidity 92    
Minimum Humidity 47    
Precipitation  
Precipitation 0.00 in 0.10 in 3.95 in (1959)
Month to date precipitation 0.53 0.79  
Year to date precipitation 32.13 35.43  
Snow  
Snow 0.00 in - - ()
Month to date snowfall  
Since 1 July snowfall  
Since 1 September snowfall  
Snow Depth -    
Sea Level Pressure  
Sea Level Pressure 30.20 in    
Wind  
Wind Speed 1 mph (East)    
Max Wind Speed 7 mph    
Max Gust Speed 9 mph    
Visibility 10 miles    
Events      
T = Trace of Precipitation, MM = Missing Value Source: NWS Daily Summary

Daily Weather History Graph

Daily Weather History Graph

Search for Another Location

Airport or City:

Trip Planner

Search our weather history database for the weather conditions in past years. The results will help you decide how hot, cold, wet, or windy it might be!

Date:

Astronomy

Oct. 08, 2012 Rise Set
Actual Time 7:42 AM EDT 7:11 PM EDT
Civil Twilight 7:15 AM EDT 7:37 PM EDT
Nautical Twilight 6:45 AM EDT 8:08 PM EDT
Astronomical Twilight 6:14 AM EDT 8:38 PM EDT
Moon 12:27 AM EDT (10/8) 2:54 PM EDT (10/8)
Length of Visible Light 12h 21m
Length of Day
11h 29m
Waning Gibbous, 46% of the Moon is Illuminated
Oct 8
Waning Gibbous
Oct 15
New
Oct 21
First Quarter
Oct 29
Full
Nov 6
Last Quarter

Hourly Weather History & Observations

Time (EDT) Temp. Windchill Dew Point Humidity Pressure Visibility Wind Dir Wind Speed Gust Speed Precip Events Conditions
12:53 AM 41.0 °F 39.0 °F 36.0 °F 82% 30.19 in 10.0 mi North 3.5 mph - N/A   Clear
1:53 AM 42.1 °F - 35.1 °F 76% 30.20 in 10.0 mi Calm Calm - N/A   Clear
2:53 AM 39.9 °F - 36.0 °F 86% 30.22 in 10.0 mi Calm Calm - N/A   Clear
3:53 AM 39.9 °F - 36.0 °F 86% 30.21 in 10.0 mi Calm Calm - N/A   Clear
4:53 AM 39.9 °F - 37.0 °F 89% 30.21 in 10.0 mi Calm Calm - N/A   Clear
5:53 AM 41.0 °F - 36.0 °F 82% 30.20 in 10.0 mi Calm Calm - N/A   Clear
6:53 AM 39.9 °F - 36.0 °F 86% 30.22 in 10.0 mi Calm Calm - N/A   Clear
7:53 AM 39.9 °F - 36.0 °F 86% 30.22 in 10.0 mi Calm Calm - N/A   Clear
8:53 AM 42.1 °F - 37.0 °F 82% 30.24 in 10.0 mi Calm Calm - N/A   Clear
9:53 AM 44.1 °F - 35.1 °F 71% 30.26 in 10.0 mi Calm Calm - N/A   Scattered Clouds
10:53 AM 46.0 °F - 35.1 °F 66% 30.25 in 10.0 mi Calm Calm - N/A   Mostly Cloudy
11:53 AM 46.9 °F - 36.0 °F 66% 30.24 in 10.0 mi North 3.5 mph - N/A   Mostly Cloudy
12:53 PM 50.0 °F - 37.9 °F 63% 30.23 in 10.0 mi Calm Calm - N/A   Mostly Cloudy
1:53 PM 53.1 °F - 37.9 °F 57% 30.21 in 10.0 mi Calm Calm - N/A   Mostly Cloudy
2:53 PM 53.1 °F - 37.9 °F 57% 30.19 in 10.0 mi Calm Calm - N/A   Overcast
3:53 PM 57.0 °F - 37.9 °F 49% 30.18 in 10.0 mi Calm Calm - N/A   Partly Cloudy
4:53 PM 55.9 °F - 36.0 °F 47% 30.16 in 10.0 mi Calm Calm - N/A   Clear
5:53 PM 55.0 °F - 36.0 °F 49% 30.14 in 10.0 mi East 5.8 mph - N/A   Clear
6:53 PM 51.1 °F - 37.9 °F 61% 30.15 in 10.0 mi East 4.6 mph - N/A   Clear
8:53 PM 43.0 °F - 37.9 °F 82% 30.16 in 10.0 mi Calm Calm - N/A   Clear
9:53 PM 45.0 °F 43.5 °F 37.9 °F 76% 30.17 in 10.0 mi ESE 3.5 mph - N/A   Clear
10:53 PM 43.0 °F 41.3 °F 37.9 °F 82% 30.18 in 10.0 mi ESE 3.5 mph - N/A   Clear
11:53 PM 42.1 °F 40.2 °F 39.0 °F 89% 30.18 in 10.0 mi SE 3.5 mph - N/A   Clear